• Processing (Info)

  • MPEC 2012-T62 : 2012 TK79

    The following Minor Planet Electronic Circular may be linked-to from your own Web pages, but must not otherwise be redistributed electronically.

    A form allowing access to any MPEC is at the bottom of this page.


    Read MPEC 2012-T61 Read MPEC 2012-T63


    M.P.E.C. 2012-T62                                Issued 2012 Oct. 11, 19:25 UT
    
         The Minor Planet Electronic Circulars contain information on unusual
             minor planets and routine data on comets.  They are published
       on behalf of Commission 20 of the International Astronomical Union by the
              Minor Planet Center, Smithsonian Astrophysical Observatory,
                              Cambridge, MA 02138, U.S.A.
    
                 Prepared using the Tamkin Foundation Computer Network
    
                                  MPC@CFA.HARVARD.EDU
                URL https://www.minorplanetcenter.net/    ISSN 1523-6714
    
                                       2012 TK79
    
    Observations:
         K12T79K* C2012 10 10.36153400 42 44.893-09 59 48.88         20.3 wLET062F51
         K12T79K  C2012 10 10.37544400 42 45.989-09 58 15.31         20.6 wLET062F51
         K12T79K |C2012 10 11.11783 00 44 01.38 -08 34 24.6          20.5 VuET062807
         K12T79K |C2012 10 11.12074 00 44 01.62 -08 34 04.8          20.3 VuET062807
         K12T79K |C2012 10 11.12364 00 44 01.86 -08 33 45.5          20.5 VuET062807
         K12T79K |C2012 10 11.12666 00 44 02.10 -08 33 25.6          20.3 VuET062807
         K12T79K |C2012 10 11.12943 00 44 02.31 -08 33 07.1          20.5 VuET062807
         K12T79K KC2012 10 11.18966500 44 07.96 -08 27 30.8          20.5 VrET062H21
         K12T79K KC2012 10 11.19507200 44 08.45 -08 26 55.0          20.3 VrET062H21
         K12T79K KC2012 10 11.20074500 44 08.96 -08 26 16.2          20.6 VrET062H21
    
    Observer details:
    807 Cerro Tololo.  Observers T. Linder, R. Holmes, R. Sampson.  0.41-m f/11
        Ritchey-Chretien + CCD.
    F51 Pan-STARRS 1, Haleakala.  Observers N. Primak, A. Schultz, S. Watters,
        J. Thiel, T. Goggia.  Measurer PS1 Science Consortium.  1.8-m
        Ritchey-Chretien + CCD.
    H21 Astronomical Research Observatory, Westfield.  Observer R. Holmes.
        Measurers L. Buzzi, H. Devore, S. Foglia, T. Vorobjov.  0.61-m f/4.0
        astrograph + CCD.
    
    Orbital elements:
    2012 TK79                                                Earth MOID = 0.1413 AU
    Epoch 2012 Sept. 30.0 TT = JDT 2456200.5                MPC
    M   0.68256              (2000.0)            P               Q
    n   0.23389174     Peri.  337.05189     +0.99650038     -0.03002060
    a   2.6089122      Node    25.05107     +0.06778881     +0.83627604
    e   0.5674607      Incl.   10.61672     -0.04890464     +0.54748620
    P   4.21           H   23.4           G   0.15           U   8
    Residuals in seconds of arc
    121010 F51  0.0   0.0     121011 807  0.1+  0.2+    121011 H21  0.0   0.4-
    121010 F51  0.0   0.0     121011 807  0.1+  0.1-    121011 H21  0.7+  0.6+
    121011 807  0.1-  0.2-    121011 807  0.0   0.0
    121011 807  0.0   0.2+    121011 H21  0.8-  0.2-
    
    Ephemeris:
    2012 TK79                a,e,i = 2.61, 0.57, 11                  q = 1.1285
    Date    TT    R. A. (2000) Decl.     Delta      r     Elong.  Phase     V
    2012 09 11    23 37 49.3 -51 46 58   0.1919  1.1453   132.6    40.3    21.7
    ...
    2012 09 26    00 14 25.4 -35 37 19   0.1528  1.1285   143.1    32.2    20.9
    ...
    2012 10 04    00 31 10.4 -21 58 55   0.1446  1.1316   153.6    23.2    20.6
    ...
    2012 10 10    00 42 06.7 -10 40 03   0.1471  1.1394   162.0    15.7    20.4
    2012 10 11    00 43 48.3 -08 47 59   0.1483  1.1411   163.2    14.6    20.4
    2012 10 12    00 45 27.9 -06 57 16   0.1498  1.1430   164.4    13.6    20.3
    ...
    2012 10 18    00 54 48.3 +03 21 36   0.1631  1.1567   168.8     9.6    20.4
    ...
    2012 10 26    01 06 05.7 +14 17 06   0.1922  1.1816   166.2    11.6    20.9
    ...
    2012 11 10    01 25 42.4 +26 20 54   0.2740  1.2456   156.0    18.9    22.0
    
    A. U. Tomatic                (C) Copyright 2012 MPC           M.P.E.C. 2012-T62
    

    Read MPEC 2012-T61 Read MPEC 2012-T63


    MPEC number:

    Enter an MPEC number in one of the following forms:

    • 1997-B01 (the full form)
    • J97B01 (the packed version of the full form)
    • B01 (the abbreviated form)